Location: La Pernelle
(49.6188°N, 1.2999°W)
Time: 15:34:16
(UTC+00:00)

In-Cosmos 22 - Pass Details

Date: 12 June 2021
Orbit: 786 x 876 km, 81.2° (Epoch: 04 August)

Event Time Altitude Azimuth Distance (km) Brightness Sun altitude
Exits shadow 22:14:02 - 202° (SSW) 2,708 6.4 -13.1°
Reaches altitude 10° 22:14:58 10° 204° (SSW) 2,351 6.1 -13.2°
Maximum altitude 22:20:12 63° 285° (WNW) 882 4.5 -13.5°
Drops below altitude 10° 22:25:28 10° 7° (N) 2,360 7.5 -13.9°
Sets 22:27:53 0° 10° (N) 3,297 8.3 -14.0°
